Marshall, MI

9:33 PM EDT on June 24, 2017 (GMT -0400)
Brooks

Weather History for KRMY - November, 2013

Change the Weather History Date:

Wednesday, November 20, 2013

  Actual Average (KBTL) Record (KBTL)
Temperature  
Mean Temperature 32 °F -  
Max Temperature 43 °F 43 °F 60 °F (2003)
Min Temperature 21 °F 30 °F 21 °F (1996)
Degree Days  
Heating Degree Days 33    
Moisture  
Dew Point 24 °F    
Average Humidity 69    
Maximum Humidity 93    
Minimum Humidity 40    
Precipitation  
Precipitation 0.00 in - - ()
Sea Level Pressure  
Sea Level Pressure 30.29 in    
Wind  
Wind Speed 6 mph (SE)    
Max Wind Speed 16 mph    
Max Gust Speed 24 mph    
Visibility 10 miles    
Events      
Averages and records for this station are not official NWS values.
T = Trace of Precipitation, MM = Missing Value Source: NWS Daily Summary

Daily Weather History Graph

Daily Weather History Graph

Search for Another Location

Airport or City:

Trip Planner

Search our weather history database for the weather conditions in past years. The results will help you decide how hot, cold, wet, or windy it might be!

Date:

Astronomy

Nov. 20, 2013 Rise Set
Actual Time 7:36 AM EST 5:13 PM EST
Civil Twilight 7:06 AM EST 5:44 PM EST
Nautical Twilight 6:31 AM EST 6:18 PM EST
Astronomical Twilight 5:58 AM EST 6:52 PM EST
Moon 7:56 PM EST (11/20) 10:01 AM EST (11/20)
Length of Visible Light 10h 38m
Length of Day
9h 37m
Waning Gibbous, 91% of the Moon is Illuminated
Nov 20
Waning Gibbous
Nov 25
Last Quarter
Dec 2
New
Dec 9
First Quarter
Dec 17
Full

Hourly Weather History & Observations

Time (EST) Temp. Windchill Dew Point Humidity Pressure Visibility Wind Dir Wind Speed Gust Speed Precip Events Conditions
12:14 AM 27.7 °F 22.4 °F 21.7 °F 78% 30.36 in 10.0 mi ESE 4.6 mph - N/A   Clear
12:34 AM 27.5 °F 23.6 °F 21.7 °F 79% 30.36 in 10.0 mi ESE 3.5 mph - N/A   Clear
12:54 AM 27.3 °F 23.4 °F 21.7 °F 80% 30.36 in 10.0 mi ESE 3.5 mph - N/A   Clear
1:14 AM 27.5 °F - 21.4 °F 78% 30.36 in 10.0 mi Calm Calm - N/A   Clear
1:34 AM 27.3 °F 23.4 °F 21.2 °F 78% 30.36 in 10.0 mi ESE 3.5 mph - N/A   Clear
1:54 AM 27.0 °F 23.0 °F 20.8 °F 78% 30.36 in 10.0 mi ESE 3.5 mph - N/A   Clear
2:14 AM 26.6 °F - 21.0 °F 79% 30.36 in 10.0 mi Calm Calm - N/A   Clear
2:34 AM 26.6 °F 22.6 °F 21.2 °F 80% 30.36 in 10.0 mi East 3.5 mph - N/A   Clear
2:54 AM 26.1 °F 20.5 °F 21.0 °F 81% 30.36 in 10.0 mi ESE 4.6 mph - N/A   Clear
3:14 AM 25.7 °F 21.5 °F 21.0 °F 82% 30.36 in 10.0 mi SE 3.5 mph - N/A   Clear
3:34 AM 26.2 °F 20.7 °F 21.2 °F 81% 30.36 in 10.0 mi ESE 4.6 mph - N/A   Clear
3:54 AM 26.1 °F - 21.2 °F 82% 30.36 in 10.0 mi Calm Calm - N/A   Clear
4:14 AM 26.6 °F - 21.6 °F 81% 30.36 in 10.0 mi Calm Calm - N/A   Clear
4:34 AM 26.6 °F - 21.7 °F 82% 30.36 in 10.0 mi Calm Calm - N/A   Clear
4:54 AM 26.6 °F - 21.7 °F 82% 30.37 in 10.0 mi Calm Calm - N/A   Clear
5:14 AM 26.1 °F - 21.6 °F 83% 30.37 in 10.0 mi Calm Calm - N/A   Clear
5:34 AM 23.5 °F - 19.9 °F 86% 30.37 in 10.0 mi Calm Calm - N/A   Clear
5:54 AM 25.2 °F - 21.2 °F 85% 30.36 in 10.0 mi North - - N/A   Clear
6:14 AM 24.6 °F - 21.6 °F 88% 30.37 in 10.0 mi North - - N/A   Clear
6:34 AM 23.7 °F - 20.8 °F 89% 30.37 in 10.0 mi North - - N/A   Clear
6:54 AM 21.9 °F - 19.9 °F 92% 30.37 in 10.0 mi North - - N/A   Clear
7:14 AM 21.4 °F - 19.6 °F 93% 30.37 in 10.0 mi North - - N/A   Clear
7:34 AM 22.1 °F - 19.6 °F 90% 30.37 in 10.0 mi North - - N/A   Clear
7:54 AM 22.5 °F - 20.5 °F 92% 30.36 in 10.0 mi North - - N/A   Clear
8:14 AM 23.4 °F - 21.0 °F 91% 30.37 in 10.0 mi Calm Calm - N/A   Clear
8:34 AM 26.8 °F 22.8 °F 22.3 °F 83% 30.36 in 10.0 mi East 3.5 mph - N/A   Clear
8:54 AM 28.8 °F 23.7 °F 23.5 °F 81% 30.36 in 10.0 mi ESE 4.6 mph - N/A   Clear
9:14 AM 30.9 °F 24.3 °F 24.4 °F 77% 30.36 in 10.0 mi SE 6.9 mph - N/A   Clear
9:34 AM 32.4 °F 25.3 °F 25.0 °F 74% 30.36 in 10.0 mi SE 8.1 mph - N/A   Clear
9:53 AM 33.6 °F 26.2 °F 25.9 °F 73% 30.35 in 10.0 mi SE 9.2 mph - N/A   Clear
10:14 AM 34.7 °F 27.5 °F 25.9 °F 70% 30.35 in 10.0 mi SE 9.2 mph - N/A   Clear
10:34 AM 35.6 °F 26.2 °F 26.1 °F 68% 30.35 in 10.0 mi ESE 15.0 mph 20.7 mph N/A   Clear
10:53 AM 36.0 °F 26.7 °F 25.5 °F 66% 30.34 in 10.0 mi ESE 15.0 mph 20.7 mph N/A   Clear
11:14 AM 36.0 °F 27.5 °F 23.9 °F 62% 30.32 in 10.0 mi SE 12.7 mph 24.2 mph N/A   Clear
11:34 AM 36.7 °F 27.2 °F 24.1 °F 60% 30.31 in 10.0 mi ESE 16.1 mph 21.9 mph N/A   Clear
11:54 AM 37.6 °F 29.6 °F 23.0 °F 56% 30.31 in 10.0 mi ESE 12.7 mph 19.6 mph N/A   Clear
12:14 PM 38.5 °F 30.7 °F 22.6 °F 53% 30.30 in 10.0 mi ESE 12.7 mph - N/A   Clear
12:34 PM 39.2 °F 30.8 °F 22.3 °F 51% 30.29 in 10.0 mi ESE 15.0 mph 18.4 mph N/A   Clear
12:54 PM 40.3 °F 32.2 °F 21.6 °F 47% 30.27 in 10.0 mi SE 15.0 mph 19.6 mph N/A   Clear
1:14 PM 40.3 °F 33.4 °F 21.0 °F 46% 30.27 in 10.0 mi SE 11.5 mph 16.1 mph N/A   Clear
1:34 PM 41.5 °F 36.4 °F 21.7 °F 45% 30.26 in 10.0 mi SE 8.1 mph - N/A   Clear
1:54 PM 41.4 °F 35.7 °F 20.8 °F 44% 30.25 in 10.0 mi SE 9.2 mph - N/A   Clear
2:14 PM 42.1 °F 37.1 °F 20.3 °F 42% 30.25 in 10.0 mi SE 8.1 mph - N/A   Clear
2:33 PM 43.2 °F 37.0 °F 19.9 °F 40% 30.24 in 10.0 mi SE 11.5 mph - N/A   Clear
2:54 PM 43.0 °F 36.4 °F 21.0 °F 42% 30.22 in 10.0 mi ESE 12.7 mph - N/A   Clear
3:14 PM 43.2 °F 37.4 °F 21.2 °F 42% 30.21 in 10.0 mi SE 10.4 mph 17.3 mph N/A   Clear
3:33 PM 42.8 °F 36.6 °F 21.2 °F 42% 30.21 in 10.0 mi ESE 11.5 mph - N/A   Clear
3:54 PM 42.1 °F 35.7 °F 21.2 °F 43% 30.21 in 10.0 mi SE 11.5 mph 18.4 mph N/A   Clear
4:14 PM 41.2 °F 37.3 °F 21.7 °F 46% 30.21 in 10.0 mi SE 5.8 mph - N/A   Clear
4:33 PM 40.6 °F 33.8 °F 22.8 °F 49% 30.21 in 10.0 mi ESE 11.5 mph - N/A   Clear
4:54 PM 40.1 °F 34.1 °F 23.4 °F 51% 30.21 in 10.0 mi SE 9.2 mph - N/A   Clear
5:14 PM 38.8 °F 32.1 °F 24.1 °F 55% 30.20 in 10.0 mi ESE 10.4 mph - N/A   Clear
5:33 PM 37.6 °F 31.6 °F 24.4 °F 59% 30.20 in 10.0 mi ESE 8.1 mph - N/A   Clear
5:54 PM 36.1 °F 31.4 °F 24.8 °F 63% 30.21 in 10.0 mi ESE 5.8 mph - N/A   Clear
6:14 PM 35.1 °F 31.0 °F 24.6 °F 66% 30.21 in 10.0 mi ESE 4.6 mph - N/A   Clear
6:33 PM 35.6 °F 31.7 °F 25.2 °F 66% 30.22 in 10.0 mi SE 4.6 mph - N/A   Clear
6:54 PM 34.9 °F 30.8 °F 25.2 °F 68% 30.22 in 10.0 mi SE 4.6 mph - N/A   Clear
7:14 PM 35.1 °F 30.1 °F 25.5 °F 68% 30.21 in 10.0 mi SE 5.8 mph - N/A   Clear
7:33 PM 35.6 °F 31.7 °F 26.1 °F 68% 30.20 in 10.0 mi ESE 4.6 mph - N/A   Clear
7:54 PM 35.4 °F 31.5 °F 26.4 °F 70% 30.21 in 10.0 mi SE 4.6 mph - N/A   Clear
8:14 PM 35.4 °F 30.5 °F 26.6 °F 70% 30.21 in 10.0 mi SE 5.8 mph - N/A   Clear
8:33 PM 36.0 °F 31.1 °F 27.1 °F 70% 30.20 in 10.0 mi ESE 5.8 mph - N/A   Clear
8:54 PM 36.1 °F 31.4 °F 27.5 °F 71% 30.19 in 10.0 mi ESE 5.8 mph - N/A   Clear
9:14 PM 36.7 °F 32.0 °F 28.2 °F 71% 30.18 in 10.0 mi ESE 5.8 mph - N/A   Clear
9:34 PM 37.4 °F 32.8 °F 28.8 °F 71% 30.18 in 10.0 mi ESE 5.8 mph - N/A   Mostly Cloudy
9:54 PM 38.3 °F 34.8 °F 29.1 °F 70% 30.17 in 10.0 mi ESE 4.6 mph - N/A   Overcast
10:14 PM 38.7 °F 35.2 °F 29.5 °F 70% 30.18 in 10.0 mi ESE 4.6 mph - N/A   Overcast
10:34 PM 39.6 °F 35.4 °F 30.0 °F 69% 30.18 in 10.0 mi SSE 5.8 mph - N/A   Overcast
10:54 PM 39.9 °F 35.1 °F 30.9 °F 70% 30.20 in 10.0 mi SSE 6.9 mph - N/A   Light Drizzle
11:14 PM 40.5 °F 37.3 °F 30.9 °F 69% 30.22 in 10.0 mi South 4.6 mph - N/A   Overcast
11:34 PM 40.6 °F 36.0 °F 30.7 °F 68% 30.21 in 10.0 mi SSE 6.9 mph - N/A   Overcast
11:54 PM 40.3 °F 37.1 °F 30.9 °F 69% 30.21 in 10.0 mi SSE 4.6 mph - N/A   Overcast